Regional Weather Roundup
Issued by NWS

Home | Current Version | Previous Version | Text Only | Print | Product List | Glossary Off
Versions: 1 2 3 4 5 6 7 8 9 10 11 12 13 14 15 16 17 18 19 20 21 22 23 24 25 26 27 28 29 30 31 32 33 34 35 36 37 38 39 40 41 42 43 44 45 46 47 48 49 50

122
ASUS43 KLSX 251907
RWRMO

WEATHER SUMMARY FOR MISSOURI
NATIONAL WEATHER SERVICE SPRINGFIELD MO
200 PM CDT MON JUL 25 2016

NOTE: "FAIR" INDICATES FEW OR NO CLOUDS BELOW 12,000 FEET WITH NO
       SIGNIFICANT WEATHER AND/OR OBSTRUCTIONS TO VISIBILITY.
       CURRENT SKY AND/OR WEATHER CONDITIONS ARE NOT AVAILABLE FOR
       CHILLICOTHE AND FARMINGTON.

MOZ001>031-035>038-043-044-053-054-252000-
...NORTHERN AND WESTERN MISSOURI...

CITY           SKY/WX    TMP DP  RH WIND       PRES   REMARKS
KANSAS CTY INT CLOUDY    82  71  69 NE12      30.05F
KANSAS C DTWN  PTSUNNY   81  71  71 NE10      30.03F
LEE`S SUMMIT   CLOUDY    78  71  79 NE8       30.05F
ST JOSEPH      CLOUDY    83  67  58 N8        30.06F
CHILLICOTHE      N/A     85  69  58 N5        30.07F
KIRKSVILLE     CLOUDY    85  64  49 NE8       30.07F

$$
MOZ066>068-077>081-088>096-101>105-252000-
...SOUTHWEST MISSOURI...

CITY           SKY/WX    TMP DP  RH WIND       PRES   REMARKS
SPRINGFIELD    CLOUDY    78  69  73 E7        30.01F
JOPLIN         CLOUDY    78  72  81 SE6       29.98F
BRANSON        PTSUNNY   77  72  83 CALM      30.06F

$$
MOZ032>034-039>042-045>050-055>058-069>072-252000-
...CENTRAL MISSOURI...

CITY           SKY/WX    TMP DP  RH WIND       PRES   REMARKS
COLUMBIA       CLOUDY    79  74  84 NW8       30.05F
JEFFERSON CITY CLOUDY    82  73  74 VRB7      30.03F
ROLLA          PTSUNNY   81  72  74 N6        30.04F
SEDALIA        CLOUDY    79  73  82 NW5       30.06F
OSAGE BEACH    CLOUDY    78  73  84 VRB6      30.05F

$$
MOZ051-052-059>065-252000-
...EAST CENTRAL MISSOURI...

CITY           SKY/WX    TMP DP  RH WIND       PRES   REMARKS
ST LOUIS INTL  CLOUDY    87  73  62 CALM      30.01F HX  94
SPIRIT OF STL  MOSUNNY   87  76  69 W8        29.99F HX  97
ST CHARLES     SUNNY     85  74  69 VRB3      29.99F HX  92

$$
MOZ072>076-082>087-097>100-106>115-252000-
...SOUTH CENTRAL AND SOUTHEAST MISSOURI...

CITY           SKY/WX    TMP DP  RH WIND       PRES   REMARKS
CAPE GIRARDEAU CLOUDY    89  75  63 NW18G25   29.98S HX  99
FARMINGTON     PTSUNNY   88  74  63 W8        30.03F HX  96
POPLAR BLUFF   CLOUDY    79  75  87 S9        30.01R
WEST PLAINS    MOSUNNY   87  72  60 W6        30.04F HX  93

$$



USA.gov is the U.S. government's official web portal to all federal, state and local government web resources and services.